Vorticity
7 6 6 6 5 4 4 3 3 2 2 2 2 2 3 4 6 7 9 10 11 11 11 11 11 10 9 9 10 10 11 12 12 12 12 11 11 12 13 14 13 12 11 12 14 16 17 16 13 11 10 11 9 7 6 5 3 4 6 8 9 9 9 10 12 11 9 6 6
7 7 7 7 6 6 5 5 4 3 3 2 2 2 2 2 3 4 6 7 9 10 10 11 11 11 10 10 9 9 10 10 11 11 11 11 10 11 12 13 13 13 12 11 13 14 15 13 12 11 10 8 8 10 11 10 9 7 7 10 13 13 13 14 15 13 10 6 5
7 7 7 7 7 7 7 6 6 5 4 4 3 2 2 2 2 2 3 4 6 7 8 10 10 11 11 11 10 10 10 9 10 10 10 10 10 10 10 11 12 13 13 13 12 12 12 13 13 12 11 9 9 9 8 8 11 11 9 7 10 11 12 13 14 12 9 6 4
7 7 7 7 7 7 7 7 7 6 6 5 5 4 3 2 2 2 2 2 3 4 5 7 9 10 11 11 11 11 11 10 10 10 10 10 10 10 10 10 10 11 12 13 12 11 10 8 9 10 12 14 15 13 12 11 12 13 15 14 11 9 7 9 10 9 7 5 5
7 7 7 7 7 7 8 8 8 7 7 7 6 6 5 4 3 3 2 2 2 2 3 4 5 7 8 10 11 11 12 12 12 12 11 11 11 10 10 10 10 10 11 12 12 12 11 8 7 6 7 10 12 15 16 17 14 14 14 14 17 17 16 14 11 8 6 6 8
7 7 7 7 7 7 7 8 8 8 8 8 7 7 7 6 5 4 3 3 2 2 2 2 3 4 5 6 8 9 11 12 12 13 13 13 13 12 12 11 10 10 10 11 11 12 12 11 9 7 5 3 3 7 11 13 12 11 10 10 11 13 16 19 15 13 12 10 11
7 7 7 7 7 7 7 7 7 8 8 8 8 8 8 7 7 6 5 4 4 3 2 2 2 2 3 4 5 6 7 9 10 12 13 14 14 14 14 13 12 11 10 10 11 11 12 12 12 10 8 5 1 0 2 6 8 8 8 7 7 9 11 13 11 11 11 11 11
7 7 7 7 7 7 7 7 7 7 7 7 8 8 8 8 8 8 7 7 6 5 4 3 2 2 2 2 3 4 4 5 7 8 10 12 13 14 15 15 14 13 11 11 11 11 12 13 13 13 12 11 7 3 0 0 3 3 1 -1 -0 3 7 10 12 13 13 10 10
6 7 7 7 7 7 7 7 7 7 7 7 7 7 8 8 8 8 8 8 8 7 6 5 4 3 2 2 2 2 3 3 4 5 6 8 10 12 13 14 14 14 13 12 11 11 11 11 13 13 14 14 12 10 7 4 3 2 1 -2 -4 -4 -1 2 7 10 12 13 11
6 6 6 7 7 7 7 7 7 7 7 7 7 7 7 7 7 8 8 8 8 8 8 7 6 5 4 3 2 2 2 2 3 4 4 5 6 8 10 11 13 13 13 12 11 10 10 10 11 12 13 14 14 13 12 10 8 7 7 6 3 -1 -4 -4 -0 6 12 16 13
5 5 6 6 6 7 7 7 7 7 8 8 8 7 7 7 7 7 8 8 8 8 8 9 8 7 6 5 4 3 2 2 2 3 3 4 5 5 6 8 9 10 11 11 11 10 9 9 9 10 11 12 13 14 14 13 11 10 10 11 12 9 4 -2 -4 -1 5 15 19
3 4 4 5 5 6 6 7 7 7 8 8 8 8 8 8 7 7 7 7 8 8 8 8 8 8 8 8 7 6 4 3 3 2 2 3 3 4 5 6 6 7 8 9 9 9 9 9 8 8 9 9 11 12 13 13 12 11 10 10 12 13 11 6 -1 -4 -3 5 15
3 3 3 3 4 4 4 5 6 6 7 7 8 8 9 9 8 8 8 8 8 8 8 8 8 8 8 9 9 8 7 6 5 4 3 3 3 3 4 4 5 6 6 7 8 8 8 9 9 8 8 8 8 9 11 12 13 12 11 10 10 11 11 11 6 -2 -6 -6 4
3 3 3 3 3 3 3 4 4 4 4 5 6 7 8 8 9 9 9 9 9 9 9 9 8 8 8 8 9 9 9 9 8 7 5 4 3 3 3 3 4 5 5 6 6 7 7 8 8 9 9 9 8 9 9 10 11 12 12 11 10 10 10 10 9 5 -2 -9 -5
3 3 4 4 4 4 4 4 4 3 3 3 4 4 5 6 7 7 8 9 9 9 9 9 9 9 9 8 8 8 9 9 9 9 8 7 6 5 4 3 3 4 4 5 5 6 7 7 8 8 9 9 10 10 10 10 11 11 12 12 12 11 11 11 10 9 6 -0 -4
4 4 4 4 4 4 4 5 5 4 4 4 3 3 3 3 4 4 5 6 8 8 9 9 9 10 10 9 9 9 9 9 9 9 9 9 9 8 6 5 4 4 4 4 4 5 5 6 7 7 8 9 10 10 11 11 11 12 12 13 13 13 14 15 14 14 12 9 4
5 5 5 5 5 5 5 5 5 5 5 5 5 4 3 3 3 2 2 3 4 5 7 8 8 9 9 10 10 10 10 10 9 9 9 10 10 10 9 8 7 6 5 4 4 4 5 5 5 6 6 7 8 9 10 11 11 12 13 13 13 14 15 16 17 17 17 16 13
4 4 4 5 5 5 5 5 5 5 6 6 6 6 5 5 4 3 3 2 2 2 4 5 6 6 7 8 9 9 10 10 10 10 10 9 9 10 10 10 10 9 7 6 5 5 4 4 5 5 5 5 6 7 8 9 10 11 12 13 13 14 15 16 15 15 15 16 17
3 3 3 4 4 5 5 5 5 5 5 6 6 6 6 6 6 5 5 4 2 2 2 3 3 4 5 6 7 7 8 9 9 10 10 10 10 10 10 10 10 10 10 9 8 7 6 5 5 5 4 4 4 5 5 6 7 9 10 11 12 14 16 17 15 12 9 10 14
3 3 3 3 3 4 4 5 5 5 5 5 6 6 7 7 7 7 6 6 4 3 3 2 2 2 3 4 5 5 6 7 7 8 9 10 10 10 10 10 10 10 10 10 10 9 8 7 6 5 5 5 4 4 4 4 5 6 7 9 10 12 15 18 18 14 9 4 7
5 5 4 4 4 4 4 4 5 5 5 5 5 5 6 6 7 7 7 7 6 5 4 3 3 2 2 2 3 4 4 5 6 7 8 9 10 10 10 10 10 10 10 10 10 10 10 9 8 7 6 6 5 5 4 4 4 4 5 6 7 9 12 16 20 19 14 6 2
6 6 6 5 5 5 5 4 4 5 5 5 5 5 5 5 5 6 6 7 6 6 6 5 4 3 3 2 2 2 3 4 4 5 6 7 8 9 10 11 11 11 11 10 10 10 11 11 10 10 8 7 6 6 5 5 4 4 4 4 5 6 8 11 16 20 19 14 5
7 7 6 6 6 6 6 5 5 5 5 5 5 5 5 5 5 5 5 5 6 6 6 5 5 4 4 3 3 2 3 3 3 4 5 5 6 7 8 10 11 11 12 11 11 11 11 11 11 11 11 10 9 7 7 6 5 5 4 4 4 5 5 7 10 15 18 19 13
7 7 7 7 7 7 7 6 6 5 5 5 5 5 5 5 5 5 5 5 5 5 5 5 5 5 5 4 4 3 3 3 3 3 4 5 6 6 7 8 10 11 11 12 12 12 11 11 11 11 12 11 11 10 9 7 7 6 5 5 5 5 5 5 6 9 13 16 17
6 7 7 7 7 7 7 7 7 7 6 6 5 5 5 5 5 5 5 5 5 5 5 5 5 5 5 5 5 4 4 3 3 3 3 4 5 6 6 7 8 9 10 11 12 12 12 12 12 11 12 12 12 12 11 10 9 7 6 6 5 5 5 5 5 6 8 10 14
6 7 7 7 7 7 7 7 7 7 7 7 7 6 6 6 6 6 6 5 5 5 5 5 5 5 4 5 5 5 5 5 4 3 3 3 3 4 5 6 7 8 8 9 10 11 12 12 12 12 12 12 12 12 12 12 11 10 8 7 6 6 6 6 5 5 6 6 9
7 7 7 7 7 7 7 7 8 8 8 8 8 8 7 7 7 7 6 6 6 5 5 5 5 5 5 5 5 5 6 6 6 5 5 4 3 3 3 4 5 6 7 8 9 10 11 12 12 12 12 12 11 12 12 12 12 12 11 10 8 7 6 6 6 6 6 6 6
7 7 7 7 7 8 8 8 8 8 8 8 8 8 8 8 8 8 8 7 7 6 6 5 5 5 6 6 6 5 6 6 6 6 6 6 6 5 4 4 4 5 5 6 7 8 10 10 11 12 13 13 12 12 12 12 12 12 12 12 11 9 8 7 6 6 6 6 6
8 8 8 8 8 8 8 8 8 8 8 8 8 8 8 8 8 8 8 8 8 8 7 6 6 5 5 5 6 6 6 6 6 6 6 6 7 7 7 6 6 6 6 6 7 8 9 10 11 12 13 14 14 13 13 12 12 12 12 13 12 11 10 9 8 7 6 6 6
9 9 9 9 9 9 9 9 9 9 8 8 8 8 8 8 8 8 8 8 8 8 8 8 7 7 6 5 5 6 6 7 7 6 6 6 6 6 7 7 7 7 7 7 7 7 8 9 11 12 13 14 15 16 16 15 14 13 12 12 13 13 12 11 10 9 8 7 7
10 10 10 10 10 10 10 10 10 9 9 9 9 9 9 9 8 8 8 8 8 9 9 8 8 8 8 7 6 6 6 6 6 6 6 6 6 6 6 6 6 7 7 7 7 8 8 9 10 11 12 13 14 15 16 17 17 16 15 13 13 13 13 13 12 11 10 9 8
11 11 11 11 11 11 11 10 10 10 10 10 9 9 9 9 9 9 9 8 9 9 9 8 8 9 9 9 8 7 7 6 6 6 6 6 7 7 6 6 6 6 6 7 7 8 8 8 9 10 10 11 12 13 14 16 16 17 17 16 15 14 13 13 13 13 12 11 10
12 11 11 11 11 11 11 11 11 10 10 10 10 10 10 10 10 10 10 9 9 9 9 8 8 8 9 9 9 9 9 8 7 7 7 6 7 7 7 7 6 6 6 6 7 7 7 8 8 9 9 10 11 12 13 14 15 16 16 17 16 16 15 14 13 13 13 13 12
11 11 11 11 11 11 11 11 10 10 10 10 10 10 10 10 11 11 11 10 10 9 9 9 9 9 9 9 9 9 9 9 9 9 9 8 8 7 7 7 7 7 7 7 7 7 7 7 7 7 8 9 10 11 12 12 13 14 15 16 17 17 16 15 14 14 14 13 13
10 10 10 10 10 10 10 10 10 10 10 10 10 10 10 10 11 12 12 12 11 11 11 11 10 10 10 10 9 9 9 10 9 9 10 10 10 9 9 8 8 7 7 8 8 8 7 7 7 7 7 7 8 9 10 11 12 13 14 15 16 17 17 17 16 15 14 14 14
9 9 10 10 10 10 10 10 11 11 11 11 12 12 12 12 12 13 13 14 14 14 13 13 13 13 13 13 12 11 11 10 10 10 10 10 10 11 10 10 9 9 9 9 9 9 9 8 8 8 7 7 7 7 8 9 10 11 12 13 14 15 16 17 17 16 16 15 14
9 10 10 10 11 11 11 12 12 13 13 14 14 15 15 15 16 16 16 17 17 18 17 16 16 16 16 16 16 15 15 14 13 13 13 12 12 12 12 12 11 10 10 10 10 10 10 10 10 10 9 9 8 7 7 7 8 9 10 12 13 14 15 16 16 17 17 16 16
11 11 12 13 14 14 15 16 16 17 18 18 18 19 19 19 20 20 20 20 21 22 21 21 20 20 20 20 20 20 20 19 18 18 17 16 16 15 15 15 14 13 12 12 12 12 12 12 12 12 11 11 10 9 8 7 7 7 8 10 11 13 14 15 15 15 16 17 17
13 15 16 17 18 19 19 20 20 21 21 22 22 22 22 22 22 22 22 22 23 23 23 23 23 23 22 22 23 23 23 22 22 22 21 21 20 19 18 18 17 16 15 14 15 14 14 14 14 13 13 13 12 11 10 9 8 7 8 9 10 11 13 14 14 14 15 16 16
17 18 20 21 21 22 22 22 22 22 22 22 22 22 22 22 22 22 22 22 22 23 23 23 23 23 23 23 23 23 23 23 23 23 23 24 23 22 22 21 20 19 18 17 17 17 17 17 16 16 15 15 15 14 13 12 10 9 9 9 10 10 11 13 14 14 14 14 15
20 21 22 22 22 22 22 22 22 21 21 21 21 21 21 21 21 21 21 21 22 22 22 23 23 23 23 23 23 23 23 23 23 23 23 24 24 24 24 23 23 22 21 20 20 20 20 19 19 18 18 18 17 17 16 15 14 13 12 11 11 11 11 11 13 14 14 13 14
Height
5655 5654 5654 5654 5654 5654 5654 5654 5654 5654 5653 5653 5653 5653 5652 5652 5652 5652 5651 5651 5651 5651 5651 5651 5651 5651 5651 5652 5652 5652 5653 5653 5654 5654 5654 5655 5655 5656 5657 5658 5659 5660 5661 5662 5663 5663 5664 5664 5665 5666 5666 5667 5668 5670 5671 5671 5671 5671 5672 5673 5674 5676 5678 5679 5680 5681 5683 5684 5684
5652 5652 5652 5652 5652 5652 5652 5651 5651 5651 5651 5651 5651 5651 5650 5650 5650 5650 5649 5649 5649 5649 5649 5649 5649 5649 5649 5649 5649 5649 5650 5650 5651 5651 5651 5652 5652 5652 5653 5654 5655 5657 5658 5659 5660 5660 5661 5662 5662 5663 5663 5664 5664 5666 5667 5668 5668 5668 5669 5669 5670 5671 5673 5674 5675 5677 5678 5679 5680
5650 5649 5649 5649 5649 5649 5649 5649 5649 5649 5649 5649 5649 5648 5648 5648 5648 5648 5647 5647 5647 5647 5647 5646 5646 5646 5646 5646 5646 5646 5647 5647 5648 5648 5648 5649 5649 5649 5650 5651 5652 5653 5654 5655 5656 5658 5658 5659 5659 5660 5660 5661 5661 5662 5663 5664 5664 5666 5667 5667 5667 5667 5668 5669 5670 5672 5673 5674 5675
5647 5647 5647 5647 5647 5647 5646 5646 5646 5646 5646 5646 5646 5646 5645 5645 5645 5645 5645 5645 5644 5644 5644 5644 5644 5644 5644 5644 5644 5644 5644 5644 5644 5645 5645 5645 5646 5646 5646 5647 5648 5649 5650 5651 5653 5654 5655 5656 5657 5657 5657 5658 5658 5658 5659 5659 5660 5662 5664 5664 5664 5664 5665 5665 5665 5666 5668 5669 5670
5644 5644 5644 5644 5644 5644 5644 5644 5644 5643 5643 5643 5643 5643 5643 5643 5643 5642 5642 5642 5642 5642 5642 5641 5641 5641 5641 5641 5641 5641 5641 5641 5641 5641 5642 5642 5642 5643 5643 5644 5644 5645 5646 5647 5648 5649 5651 5652 5653 5654 5654 5655 5655 5655 5655 5656 5657 5659 5659 5660 5661 5661 5662 5662 5662 5663 5663 5664 5665
5642 5642 5641 5641 5641 5641 5641 5640 5640 5640 5640 5640 5640 5640 5640 5640 5639 5639 5639 5639 5639 5639 5639 5639 5639 5638 5638 5638 5638 5638 5638 5638 5638 5638 5638 5638 5639 5639 5639 5640 5640 5641 5642 5643 5644 5645 5646 5648 5649 5650 5650 5651 5652 5652 5652 5654 5654 5655 5656 5657 5657 5658 5659 5659 5659 5659 5660 5661 5662
5639 5639 5639 5639 5638 5638 5638 5638 5637 5637 5637 5637 5637 5637 5637 5637 5636 5636 5636 5636 5636 5636 5635 5635 5635 5635 5635 5635 5635 5635 5635 5635 5635 5635 5635 5635 5635 5635 5636 5636 5637 5637 5638 5639 5640 5641 5642 5643 5644 5645 5646 5647 5648 5648 5649 5650 5651 5652 5652 5653 5653 5654 5655 5655 5655 5656 5657 5658 5659
5636 5636 5636 5635 5635 5635 5635 5634 5634 5634 5634 5634 5634 5634 5633 5633 5633 5633 5633 5633 5633 5632 5632 5632 5632 5632 5632 5632 5631 5631 5631 5631 5631 5631 5631 5631 5632 5632 5632 5632 5633 5633 5634 5635 5635 5636 5637 5639 5639 5640 5641 5643 5644 5644 5645 5646 5647 5648 5649 5649 5649 5650 5651 5652 5651 5652 5654 5655 5655
5633 5633 5633 5632 5632 5632 5631 5631 5631 5631 5630 5630 5630 5630 5630 5629 5629 5629 5629 5629 5629 5629 5629 5629 5628 5628 5628 5628 5628 5628 5628 5628 5628 5628 5628 5628 5628 5628 5628 5629 5629 5629 5629 5630 5631 5632 5633 5634 5635 5636 5637 5638 5639 5640 5641 5642 5643 5644 5645 5645 5646 5647 5647 5648 5649 5649 5650 5651 5652
5630 5629 5629 5629 5629 5628 5628 5628 5628 5627 5627 5627 5626 5626 5626 5626 5626 5625 5625 5625 5625 5625 5625 5625 5624 5624 5624 5624 5624 5624 5624 5624 5624 5624 5624 5624 5624 5624 5624 5625 5625 5625 5625 5626 5627 5628 5629 5629 5630 5631 5632 5633 5634 5635 5636 5637 5639 5639 5640 5641 5642 5643 5644 5644 5645 5645 5646 5646 5647
5627 5626 5626 5625 5625 5624 5624 5624 5624 5624 5623 5623 5623 5623 5622 5622 5622 5621 5621 5621 5621 5621 5621 5621 5621 5621 5620 5620 5620 5620 5620 5620 5620 5620 5620 5620 5620 5620 5621 5621 5621 5621 5621 5622 5622 5623 5624 5624 5626 5627 5627 5628 5629 5630 5631 5632 5634 5635 5635 5636 5637 5638 5639 5640 5641 5641 5641 5641 5642
5623 5623 5622 5622 5621 5621 5620 5620 5620 5619 5619 5619 5619 5619 5618 5618 5618 5617 5617 5617 5617 5617 5617 5617 5617 5616 5616 5616 5616 5616 5616 5616 5616 5616 5616 5616 5616 5616 5617 5617 5617 5617 5618 5618 5618 5618 5619 5619 5620 5622 5623 5624 5625 5625 5626 5627 5628 5629 5630 5631 5632 5634 5634 5635 5636 5636 5637 5637 5637
5619 5619 5619 5618 5618 5617 5617 5616 5616 5615 5615 5615 5614 5614 5614 5614 5614 5613 5613 5613 5613 5612 5612 5612 5612 5612 5612 5612 5612 5612 5612 5612 5612 5612 5612 5612 5612 5612 5612 5613 5613 5613 5613 5614 5614 5614 5614 5615 5615 5616 5617 5619 5619 5620 5621 5622 5623 5624 5625 5626 5627 5629 5629 5630 5631 5631 5632 5633 5633
5615 5615 5614 5614 5614 5613 5613 5612 5612 5611 5611 5610 5610 5609 5609 5609 5609 5609 5609 5608 5608 5608 5608 5608 5607 5607 5607 5607 5607 5607 5607 5607 5607 5608 5608 5608 5608 5608 5608 5608 5608 5609 5609 5609 5609 5610 5610 5610 5611 5611 5612 5613 5614 5615 5616 5617 5618 5619 5619 5620 5622 5623 5624 5625 5626 5627 5628 5628 5629
5609 5609 5609 5609 5609 5609 5609 5608 5608 5607 5607 5606 5605 5605 5605 5604 5604 5604 5604 5604 5603 5603 5603 5603 5603 5602 5602 5602 5602 5602 5602 5602 5603 5603 5603 5603 5603 5604 5604 5604 5604 5604 5604 5604 5605 5605 5606 5606 5606 5607 5607 5608 5609 5610 5611 5612 5613 5614 5614 5615 5616 5617 5618 5619 5621 5622 5623 5624 5624
5602 5602 5602 5603 5603 5603 5603 5603 5603 5603 5602 5601 5601 5600 5600 5599 5599 5599 5599 5599 5599 5598 5598 5598 5598 5598 5597 5597 5597 5597 5597 5597 5597 5598 5598 5598 5599 5599 5599 5599 5599 5599 5599 5600 5600 5600 5601 5601 5601 5602 5603 5603 5604 5604 5605 5606 5607 5608 5609 5610 5611 5612 5613 5614 5615 5616 5618 5619 5619
5597 5596 5596 5596 5596 5596 5597 5597 5597 5597 5597 5596 5596 5595 5595 5594 5594 5594 5594 5593 5593 5593 5593 5593 5593 5593 5592 5592 5592 5592 5592 5592 5592 5592 5592 5593 5593 5594 5594 5594 5594 5594 5595 5595 5595 5596 5596 5596 5597 5597 5598 5598 5599 5599 5600 5601 5602 5603 5604 5605 5606 5607 5608 5608 5609 5610 5611 5613 5614
5593 5592 5591 5591 5590 5590 5590 5590 5590 5591 5591 5591 5591 5590 5590 5589 5589 5588 5588 5588 5588 5588 5588 5587 5587 5587 5587 5587 5587 5587 5587 5587 5587 5587 5587 5587 5587 5588 5588 5589 5589 5589 5589 5590 5590 5590 5591 5591 5591 5592 5593 5593 5594 5594 5595 5596 5597 5597 5598 5599 5600 5601 5603 5604 5604 5605 5606 5607 5608
5589 5588 5588 5587 5586 5585 5584 5584 5584 5584 5584 5584 5584 5584 5584 5584 5583 5583 5582 5582 5582 5582 5581 5581 5581 5581 5581 5581 5581 5581 5581 5581 5581 5581 5581 5581 5581 5582 5582 5582 5583 5583 5584 5584 5585 5585 5585 5586 5586 5587 5587 5588 5588 5589 5589 5590 5591 5592 5593 5594 5595 5596 5597 5598 5599 5600 5601 5602 5602
5583 5583 5583 5582 5582 5581 5580 5580 5579 5578 5577 5577 5577 5577 5577 5578 5578 5577 5577 5576 5576 5576 5575 5575 5575 5575 5575 5575 5575 5575 5575 5575 5576 5576 5576 5576 5576 5576 5576 5576 5577 5577 5578 5578 5579 5579 5580 5580 5581 5581 5582 5582 5582 5583 5584 5585 5586 5586 5587 5588 5589 5590 5591 5593 5594 5595 5595 5596 5597
5577 5577 5576 5576 5576 5575 5575 5575 5574 5574 5572 5571 5570 5570 5570 5570 5570 5570 5570 5570 5570 5570 5569 5569 5569 5568 5568 5568 5568 5569 5569 5569 5569 5569 5569 5570 5570 5570 5570 5570 5570 5571 5571 5572 5572 5573 5574 5574 5575 5575 5576 5576 5577 5577 5578 5579 5579 5580 5581 5583 5584 5584 5585 5587 5588 5589 5590 5591 5591
5571 5571 5570 5569 5569 5569 5569 5568 5568 5568 5568 5567 5566 5564 5564 5563 5563 5563 5563 5563 5563 5563 5563 5563 5562 5562 5562 5561 5561 5561 5561 5562 5562 5562 5563 5563 5564 5564 5564 5564 5564 5564 5565 5565 5566 5566 5567 5568 5569 5569 5570 5571 5571 5572 5572 5573 5574 5574 5575 5576 5578 5579 5579 5581 5582 5583 5584 5585 5586
5565 5565 5564 5563 5563 5562 5561 5561 5561 5561 5561 5561 5560 5560 5559 5557 5556 5555 5555 5555 5556 5556 5556 5556 5556 5555 5555 5555 5554 5554 5554 5554 5555 5555 5555 5556 5556 5557 5557 5558 5558 5558 5558 5559 5559 5559 5560 5561 5562 5563 5564 5564 5565 5566 5566 5567 5568 5568 5569 5570 5571 5572 5574 5574 5576 5577 5578 5579 5580
5559 5559 5558 5557 5556 5556 5555 5554 5554 5554 5554 5554 5554 5553 5553 5552 5551 5550 5549 5548 5548 5548 5548 5548 5548 5549 5548 5548 5548 5548 5547 5548 5548 5548 5548 5548 5548 5549 5549 5550 5551 5551 5551 5552 5552 5553 5554 5554 5555 5556 5557 5558 5559 5559 5560 5561 5562 5563 5563 5564 5565 5566 5567 5568 5569 5571 5572 5574 5574
5553 5552 5551 5551 5550 5549 5549 5548 5548 5547 5546 5546 5546 5546 5545 5545 5545 5544 5543 5542 5541 5540 5540 5540 5540 5540 5540 5540 5540 5540 5540 5540 5540 5540 5540 5541 5541 5541 5541 5542 5543 5544 5544 5544 5545 5546 5547 5547 5548 5549 5550 5551 5552 5553 5554 5555 5556 5556 5557 5558 5559 5559 5560 5561 5563 5564 5565 5567 5568
5546 5546 5545 5544 5543 5542 5542 5541 5540 5540 5539 5539 5539 5538 5538 5537 5537 5537 5536 5536 5535 5534 5533 5533 5532 5532 5532 5532 5532 5532 5532 5533 5533 5533 5533 5534 5534 5534 5534 5534 5534 5535 5536 5537 5538 5539 5539 5540 5541 5542 5543 5544 5545 5546 5547 5548 5549 5550 5551 5552 5553 5554 5554 5555 5556 5557 5559 5560 5561
5539 5539 5538 5537 5536 5535 5534 5534 5533 5533 5532 5532 5531 5531 5530 5530 5529 5529 5529 5528 5528 5527 5527 5526 5525 5524 5524 5524 5524 5524 5524 5524 5524 5525 5525 5525 5526 5526 5526 5526 5527 5527 5528 5528 5529 5530 5531 5532 5533 5534 5535 5536 5538 5539 5540 5541 5542 5543 5544 5545 5546 5547 5548 5549 5549 5550 5552 5553 5554
5533 5532 5531 5530 5529 5528 5527 5526 5526 5525 5524 5524 5524 5523 5523 5522 5522 5521 5521 5520 5520 5520 5519 5519 5519 5518 5517 5516 5516 5515 5515 5516 5516 5516 5517 5517 5517 5518 5518 5519 5519 5519 5519 5520 5520 5521 5522 5524 5525 5526 5527 5529 5530 5531 5533 5534 5535 5536 5538 5539 5540 5541 5542 5542 5543 5544 5545 5546 5548
5525 5524 5524 5523 5522 5521 5520 5519 5518 5517 5517 5516 5516 5515 5514 5514 5514 5513 5513 5512 5512 5512 5512 5511 5511 5510 5510 5509 5509 5508 5508 5508 5508 5508 5508 5509 5509 5509 5509 5510 5510 5511 5511 5512 5512 5513 5514 5514 5516 5517 5519 5520 5522 5524 5525 5527 5528 5529 5530 5532 5533 5534 5535 5536 5537 5538 5539 5540 5541
5518 5517 5516 5516 5515 5514 5513 5512 5510 5509 5509 5508 5508 5507 5506 5506 5505 5504 5504 5504 5504 5503 5503 5503 5503 5503 5502 5502 5501 5501 5501 5500 5499 5499 5499 5500 5500 5501 5501 5501 5502 5502 5503 5503 5504 5504 5505 5506 5507 5508 5509 5511 5513 5515 5517 5519 5520 5522 5523 5524 5526 5527 5528 5529 5530 5531 5532 5533 5534
5511 5510 5509 5508 5507 5506 5505 5504 5503 5502 5501 5500 5499 5499 5498 5497 5497 5496 5495 5495 5494 5494 5494 5494 5494 5494 5494 5493 5493 5493 5493 5493 5492 5492 5492 5492 5492 5492 5493 5493 5494 5494 5494 5494 5495 5496 5496 5497 5498 5499 5500 5502 5503 5505 5508 5510 5512 5514 5516 5517 5519 5520 5521 5522 5523 5524 5525 5526 5528
5503 5502 5501 5500 5499 5498 5497 5496 5495 5494 5493 5492 5491 5490 5489 5489 5488 5488 5487 5486 5485 5485 5485 5485 5485 5484 5484 5484 5484 5485 5485 5484 5485 5485 5484 5484 5484 5484 5485 5485 5485 5485 5486 5486 5486 5487 5488 5489 5490 5490 5491 5493 5494 5496 5498 5501 5503 5505 5508 5509 5511 5512 5514 5515 5516 5517 5519 5519 5521
5496 5494 5494 5493 5491 5490 5489 5488 5487 5486 5485 5484 5483 5482 5481 5480 5479 5479 5478 5477 5477 5476 5476 5476 5476 5475 5475 5475 5475 5476 5476 5476 5476 5476 5476 5476 5476 5477 5477 5477 5478 5477 5477 5478 5478 5479 5479 5480 5481 5482 5483 5484 5485 5487 5489 5491 5494 5496 5499 5501 5503 5505 5506 5507 5509 5510 5511 5512 5514
5488 5487 5486 5484 5484 5482 5481 5480 5479 5478 5477 5476 5475 5474 5472 5471 5471 5470 5469 5469 5468 5467 5467 5467 5467 5466 5466 5466 5466 5466 5466 5466 5467 5467 5467 5468 5468 5469 5469 5469 5469 5469 5469 5470 5470 5470 5470 5471 5472 5473 5474 5474 5476 5478 5480 5482 5484 5487 5489 5492 5494 5496 5498 5500 5501 5503 5504 5505 5506
5480 5479 5478 5477 5475 5474 5473 5472 5470 5469 5469 5468 5466 5465 5464 5463 5462 5461 5460 5459 5459 5459 5458 5458 5458 5457 5457 5457 5457 5457 5457 5457 5457 5458 5458 5458 5459 5459 5460 5461 5461 5461 5462 5462 5462 5462 5462 5463 5463 5464 5464 5465 5467 5469 5471 5473 5475 5477 5480 5483 5485 5488 5490 5492 5493 5495 5496 5498 5499
5472 5471 5470 5468 5467 5466 5464 5463 5462 5461 5460 5459 5458 5457 5456 5454 5453 5452 5451 5450 5450 5450 5449 5449 5449 5448 5448 5448 5447 5447 5447 5447 5448 5448 5448 5449 5449 5450 5451 5452 5452 5453 5454 5454 5453 5453 5454 5454 5455 5455 5455 5456 5458 5460 5462 5464 5466 5468 5471 5473 5476 5479 5481 5483 5485 5487 5489 5490 5492
5464 5463 5461 5460 5459 5458 5456 5455 5454 5453 5452 5450 5449 5448 5447 5446 5444 5443 5442 5441 5441 5441 5440 5440 5440 5440 5439 5439 5438 5438 5438 5438 5438 5438 5439 5439 5439 5440 5440 5442 5443 5444 5444 5444 5444 5444 5445 5445 5446 5446 5447 5448 5449 5451 5453 5454 5457 5459 5462 5464 5467 5469 5471 5474 5476 5478 5480 5482 5484
5456 5454 5453 5452 5450 5449 5448 5447 5445 5444 5443 5442 5440 5439 5438 5437 5436 5434 5433 5432 5432 5431 5431 5431 5431 5431 5430 5429 5429 5429 5429 5429 5429 5429 5429 5429 5429 5429 5430 5431 5433 5434 5435 5435 5435 5435 5436 5436 5437 5437 5438 5439 5440 5442 5444 5445 5448 5450 5453 5455 5458 5460 5462 5464 5466 5469 5471 5474 5476
5448 5446 5444 5443 5442 5440 5439 5438 5437 5435 5434 5433 5432 5430 5429 5428 5427 5425 5424 5423 5422 5422 5421 5421 5422 5422 5421 5420 5420 5420 5420 5420 5420 5420 5419 5419 5419 5420 5420 5422 5423 5424 5425 5425 5425 5426 5426 5427 5427 5428 5429 5429 5431 5432 5434 5436 5439 5441 5444 5446 5449 5451 5453 5455 5457 5459 5462 5464 5467
5440 5438 5436 5434 5433 5431 5430 5429 5428 5426 5425 5424 5422 5421 5420 5419 5418 5416 5415 5414 5413 5412 5412 5412 5412 5412 5412 5411 5411 5411 5411 5412 5412 5411 5410 5410 5410 5410 5411 5412 5413 5414 5415 5416 5416 5416 5416 5417 5418 5418 5419 5420 5421 5423 5425 5427 5430 5432 5435 5437 5439 5442 5444 5446 5448 5450 5453 5455 5458
5432 5430 5428 5426 5424 5423 5421 5420 5419 5417 5416 5415 5413 5412 5411 5410 5409 5408 5406 5405 5404 5404 5403 5403 5403 5403 5402 5402 5402 5402 5402 5403 5403 5403 5402 5401 5401 5401 5402 5403 5404 5405 5406 5407 5407 5407 5407 5407 5408 5409 5410 5410 5412 5413 5415 5418 5420 5424 5426 5428 5430 5432 5434 5436 5439 5441 5444 5446 5449